Frederick, MD

6:40 AM EST on December 11, 2017 (GMT -0500)
Frederick Municipal

Weather History for KFDK - January, 2012

Change the Weather History Date:

Friday, January 13, 2012

  Actual Average (KHGR) Record (KHGR)
Temperature  
Mean Temperature 38 °F -  
Max Temperature 51 °F 34 °F 68 °F (2005)
Min Temperature 26 °F 21 °F 12 °F (1997)
Degree Days  
Heating Degree Days 26    
Moisture  
Dew Point 21 °F    
Average Humidity 62    
Maximum Humidity 93    
Minimum Humidity 48    
Precipitation  
Precipitation 0.06 in - - ()
Sea Level Pressure  
Sea Level Pressure 29.70 in    
Wind  
Wind Speed 17 mph (West)    
Max Wind Speed 29 mph    
Max Gust Speed 39 mph    
Visibility 10 miles    
Events Rain    
Averages and records for this station are not official NWS values.
T = Trace of Precipitation, MM = Missing Value Source: NWS Daily Summary

Daily Weather History Graph

Daily Weather History Graph

Search for Another Location

Airport or City:

Trip Planner

Search our weather history database for the weather conditions in past years. The results will help you decide how hot, cold, wet, or windy it might be!

Date:

Astronomy

Jan. 13, 2012 Rise Set
Actual Time 7:28 AM EST 5:07 PM EST
Civil Twilight 6:59 AM EST 5:37 PM EST
Nautical Twilight 6:25 AM EST 6:10 PM EST
Astronomical Twilight 5:53 AM EST 6:42 PM EST
Moon 10:16 PM EST (1/13) 9:43 AM EST (1/13)
Length of Visible Light 10h 38m
Length of Day
9h 38m
Waning Gibbous, 79% of the Moon is Illuminated
Jan 13
Waning Gibbous
Jan 16
Last Quarter
Jan 23
New
Jan 30
First Quarter
Feb 7
Full

Hourly Weather History & Observations

Time (EST) Temp. Windchill Dew Point Humidity Pressure Visibility Wind Dir Wind Speed Gust Speed Precip Events Conditions
12:15 AM 50.0 °F - 46.4 °F 87% 29.36 in 10.0 mi South 12.7 mph 23.0 mph N/A   Overcast
12:35 AM 51.8 °F - 46.4 °F 82% 29.34 in 10.0 mi South 12.7 mph 18.4 mph N/A   Overcast
12:50 AM 50.0 °F - 46.4 °F 87% 29.33 in 10.0 mi South 9.2 mph 16.1 mph N/A   Overcast
1:10 AM 51.8 °F - 44.6 °F 76% 29.31 in 10.0 mi South 10.4 mph 18.4 mph N/A   Overcast
1:30 AM 46.4 °F 38.3 °F 41.0 °F 81% 29.36 in 7.0 mi West 23.0 mph 32.2 mph 0.02 in Rain Heavy Rain
1:50 AM 42.8 °F 34.8 °F 41.0 °F 93% 29.38 in 5.0 mi West 17.3 mph 23.0 mph 0.05 in Rain Rain
2:10 AM 42.8 °F 36.6 °F 41.0 °F 93% 29.38 in 10.0 mi West 11.5 mph 23.0 mph 0.01 in Rain Light Rain
2:30 AM 42.8 °F 34.8 °F 41.0 °F 93% 29.41 in 10.0 mi West 17.3 mph 23.0 mph 0.01 in Rain Light Rain
4:55 AM 33.8 °F 23.5 °F 30.2 °F 87% 29.50 in 10.0 mi West 16.1 mph 28.8 mph N/A   Overcast
5:25 AM 33.8 °F 22.2 °F 26.6 °F 75% 29.50 in 10.0 mi West 20.7 mph 27.6 mph N/A   Overcast
5:40 AM 33.8 °F 22.2 °F 24.8 °F 70% 29.51 in 10.0 mi West 20.7 mph 27.6 mph N/A   Overcast
6:00 AM 32.0 °F 20.5 °F 23.0 °F 69% 29.54 in 10.0 mi West 18.4 mph 31.1 mph N/A   Scattered Clouds
6:20 AM 32.0 °F 21.2 °F 23.0 °F 69% 29.56 in 10.0 mi West 16.1 mph 24.2 mph N/A   Mostly Cloudy
6:40 AM 32.0 °F 19.8 °F 19.4 °F 60% 29.59 in 10.0 mi West 20.7 mph 39.1 mph N/A   Mostly Cloudy
7:00 AM 30.2 °F 19.3 °F 17.6 °F 60% 29.61 in 10.0 mi West 15.0 mph 39.1 mph N/A   Scattered Clouds
7:20 AM 30.2 °F 15.7 °F 17.6 °F 60% 29.62 in 10.0 mi West 27.6 mph 34.5 mph N/A   Mostly Cloudy
7:40 AM 30.2 °F 19.3 °F 17.6 °F 60% 29.61 in 10.0 mi West 15.0 mph 24.2 mph N/A   Mostly Cloudy
8:00 AM 30.2 °F 17.8 °F 17.6 °F 60% 29.62 in 10.0 mi WSW 19.6 mph 35.7 mph N/A   Scattered Clouds
8:35 AM 30.2 °F 20.8 °F 17.6 °F 60% 29.64 in 10.0 mi WSW 11.5 mph 23.0 mph N/A   Overcast
8:55 AM 30.2 °F 17.8 °F 17.6 °F 60% 29.64 in 10.0 mi WSW 19.6 mph 27.6 mph N/A   Overcast
9:15 AM 32.0 °F 19.2 °F 17.6 °F 55% 29.65 in 10.0 mi WSW 23.0 mph 29.9 mph N/A   Overcast
9:35 AM 32.0 °F 20.1 °F 17.6 °F 55% 29.66 in 10.0 mi West 19.6 mph 28.8 mph N/A   Overcast
9:55 AM 32.0 °F 20.8 °F 17.6 °F 55% 29.66 in 10.0 mi West 17.3 mph 27.6 mph N/A   Overcast
10:15 AM 32.0 °F 19.8 °F 15.8 °F 51% 29.67 in 10.0 mi WSW 20.7 mph 31.1 mph N/A   Overcast
10:30 AM 32.0 °F 19.2 °F 14.0 °F 48% 29.68 in 10.0 mi WSW 23.0 mph - N/A   Overcast
10:50 AM 32.0 °F 19.8 °F 14.0 °F 48% 29.69 in 10.0 mi West 20.7 mph 32.2 mph N/A   Overcast
11:10 AM 30.2 °F 16.2 °F 14.0 °F 51% 29.70 in 10.0 mi WSW 25.3 mph 31.1 mph N/A   Overcast
11:30 AM 32.0 °F 20.8 °F 14.0 °F 48% 29.70 in 10.0 mi West 17.3 mph 33.4 mph N/A   Mostly Cloudy
11:50 AM 32.0 °F 19.2 °F 14.0 °F 48% 29.71 in 10.0 mi West 23.0 mph 32.2 mph N/A   Scattered Clouds
12:10 PM 32.0 °F 20.5 °F 15.8 °F 51% 29.70 in 10.0 mi West 18.4 mph 28.8 mph N/A   Mostly Cloudy
12:30 PM 32.0 °F 19.5 °F 15.8 °F 51% 29.70 in 10.0 mi West 21.9 mph 27.6 mph N/A   Mostly Cloudy
1:25 PM 32.0 °F 19.8 °F 15.8 °F 51% 29.71 in 10.0 mi West 20.7 mph 36.8 mph N/A   Overcast
1:45 PM 33.8 °F 23.5 °F 17.6 °F 52% 29.72 in 10.0 mi West 16.1 mph 28.8 mph N/A   Overcast
2:05 PM 33.8 °F 21.9 °F 17.6 °F 52% 29.73 in 10.0 mi West 21.9 mph 31.1 mph N/A   Overcast
2:25 PM 33.8 °F 23.9 °F 17.6 °F 52% 29.73 in 10.0 mi West 15.0 mph 25.3 mph N/A   Scattered Clouds
2:45 PM 33.8 °F 21.3 °F 17.6 °F 52% 29.75 in 10.0 mi West 24.2 mph 29.9 mph N/A   Clear
3:00 PM 33.8 °F 22.5 °F 17.6 °F 52% 29.76 in 10.0 mi West 19.6 mph 28.8 mph N/A   Scattered Clouds
3:20 PM 33.8 °F 24.8 °F 17.6 °F 52% 29.78 in 10.0 mi West 12.7 mph 21.9 mph N/A   Scattered Clouds
3:40 PM 33.8 °F 23.9 °F 19.4 °F 56% 29.79 in 10.0 mi West 15.0 mph 24.2 mph N/A   Mostly Cloudy
4:00 PM 33.8 °F 23.2 °F 19.4 °F 56% 29.80 in 10.0 mi West 17.3 mph 20.7 mph N/A   Overcast
4:20 PM 32.0 °F 20.5 °F 17.6 °F 55% 29.81 in 10.0 mi WSW 18.4 mph 27.6 mph N/A   Overcast
4:40 PM 32.0 °F 20.8 °F 17.6 °F 55% 29.83 in 10.0 mi West 17.3 mph 25.3 mph N/A   Mostly Cloudy
5:00 PM 32.0 °F 21.2 °F 17.6 °F 55% 29.84 in 10.0 mi WSW 16.1 mph 26.5 mph N/A   Scattered Clouds
5:15 PM 32.0 °F 23.6 °F 17.6 °F 55% 29.85 in 10.0 mi West 10.4 mph 21.9 mph N/A   Clear
5:35 PM 32.0 °F 22.1 °F 19.4 °F 60% 29.85 in 10.0 mi WNW 13.8 mph - N/A   Clear
5:55 PM 32.0 °F 23.0 °F 19.4 °F 60% 29.88 in 10.0 mi West 11.5 mph - N/A   Clear
6:35 PM 30.2 °F 16.5 °F 17.6 °F 60% 29.90 in 10.0 mi West 24.2 mph 29.9 mph N/A   Clear
6:55 PM 30.2 °F 15.9 °F 17.6 °F 60% 29.91 in 10.0 mi West 26.5 mph 29.9 mph N/A   Clear
7:15 PM 30.2 °F 15.4 °F 17.6 °F 60% 29.92 in 10.0 mi West 28.8 mph 34.5 mph N/A   Clear
7:30 PM 28.4 °F 14.1 °F 15.8 °F 59% 29.92 in 10.0 mi West 24.2 mph 34.5 mph N/A   Clear
7:50 PM 28.4 °F 17.0 °F 15.8 °F 59% 29.95 in 10.0 mi West 15.0 mph 19.6 mph N/A   Clear
8:10 PM 28.4 °F 18.5 °F 15.8 °F 59% 29.94 in 10.0 mi WSW 11.5 mph 23.0 mph N/A   Clear
8:30 PM 28.4 °F 19.7 °F 17.6 °F 64% 29.95 in 10.0 mi WSW 9.2 mph 17.3 mph N/A   Scattered Clouds
8:50 PM 28.4 °F 19.7 °F 15.8 °F 59% 29.95 in 10.0 mi WSW 9.2 mph - N/A   Scattered Clouds
9:10 PM 26.6 °F 15.2 °F 17.6 °F 69% 29.96 in 10.0 mi West 13.8 mph - N/A   Clear
9:30 PM 26.6 °F 17.5 °F 17.6 °F 69% 29.96 in 10.0 mi WSW 9.2 mph - N/A   Scattered Clouds
9:45 PM 26.6 °F 16.8 °F 17.6 °F 69% 29.96 in 10.0 mi West 10.4 mph - N/A   Mostly Cloudy
10:05 PM 28.4 °F 18.0 °F 17.6 °F 64% 29.96 in 10.0 mi West 12.7 mph - N/A   Overcast
10:25 PM 28.4 °F 19.7 °F 17.6 °F 64% 29.97 in 10.0 mi West 9.2 mph - N/A   Scattered Clouds
10:45 PM 28.4 °F 19.1 °F 17.6 °F 64% 29.97 in 10.0 mi West 10.4 mph 17.3 mph N/A   Mostly Cloudy
11:05 PM 28.4 °F 19.7 °F 17.6 °F 64% 29.97 in 10.0 mi WSW 9.2 mph 18.4 mph N/A   Overcast
11:25 PM 28.4 °F 19.1 °F 17.6 °F 64% 29.98 in 10.0 mi West 10.4 mph - N/A   Overcast
11:45 PM 28.4 °F 20.4 °F 17.6 °F 64% 29.98 in 10.0 mi WSW 8.1 mph - N/A   Overcast